When you browse on this site, cookies collect data to enhance your experience and personalize the content and advertising you see.
Visit our Privacy Policy to learn more. By continuing to use the site, you agree to this use of cookies and data.
  • In Hungary
  • List of Countries
  • For 7 days
  • Water Temperature
  • Satellite Maps
  • Weather Map
  • News
  • Weather Widgets
  • user-avatar
    Login

    Hourly Weather Sterling

    Today, 15 December, Saturday

    Time Temperature Precipitation Wind Pressure Humidity
    00:00 +7°C° 1.3 mm 2 mps 758 mmHg 97%
    01:00 +7°C° 0 mm 3 mps 758 mmHg 97%
    02:00 +7°C° 1 mm 3 mps 758 mmHg 97%
    03:00 +7°C° 1 mm 3 mps 757 mmHg 97%
    04:00 +8°C° 1 mm 2 mps 756 mmHg 97%
    05:00 +8°C° 1.4 mm 2 mps 756 mmHg 97%
    06:00 +8°C° 1.4 mm 3 mps 756 mmHg 97%
    07:00 +9°C° 0 mm 2 mps 756 mmHg 97%
    08:00 +9°C° 1.5 mm 3 mps 755 mmHg 97%
    09:00 +9°C° 1.5 mm 3 mps 755 mmHg 97%
    10:00 +10°C° 1.5 mm 4 mps 755 mmHg 97%
    11:00 +10°C° 1.8 mm 4 mps 755 mmHg 96%
    12:00 +10°C° 1.8 mm 4 mps 754 mmHg 96%
    13:00 +10°C° 1.8 mm 4 mps 754 mmHg 96%
    14:00 +10°C° 1.1 mm 4 mps 754 mmHg 96%
    15:00 +11°C° 1.1 mm 4 mps 754 mmHg 96%
    16:00 +11°C° 1.1 mm 3 mps 753 mmHg 96%
    17:00 +11°C° 1 mm 3 mps 753 mmHg 96%
    18:00 +11°C° 1 mm 4 mps 753 mmHg 95%
    19:00 +11°C° 1 mm 4 mps 753 mmHg 95%
    20:00 +10°C° 1.8 mm 4 mps 753 mmHg 95%
    21:00 +10°C° 1.8 mm 3 mps 753 mmHg 95%
    22:00 +10°C° 1.8 mm 3 mps 753 mmHg 95%
    23:00 +10°C° 1.6 mm 4 mps 753 mmHg 94%

    Tomorrow, 16 December, Sunday

    Time Temperature Precipitation Wind Pressure Humidity
    00:00 +10°C° 1.6 mm 4 mps 752 mmHg 93%
    01:00 +8°C° 1.6 mm 5 mps 752 mmHg 92%
    02:00 +8°C° 1.1 mm 5 mps 752 mmHg 92%
    03:00 +7°C° 1.1 mm 5 mps 752 mmHg 91%
    04:00 +7°C° 1.1 mm 5 mps 752 mmHg 91%
    05:00 +6°C° 0.6 mm 5 mps 751 mmHg 90%
    06:00 +6°C° 0.6 mm 5 mps 751 mmHg 89%
    07:00 +5°C° 0.6 mm 5 mps 751 mmHg 87%
    08:00 +5°C° 0.4 mm 4 mps 751 mmHg 88%
    09:00 +5°C° 0.4 mm 4 mps 751 mmHg 89%
    10:00 +5°C° 0.4 mm 3 mps 751 mmHg 89%
    11:00 +5°C° 0.9 mm 3 mps 751 mmHg 89%
    12:00 +5°C° 0.9 mm 3 mps 751 mmHg 90%
    13:00 +5°C° 0.9 mm 3 mps 750 mmHg 90%
    14:00 +5°C° 0.5 mm 3 mps 750 mmHg 89%
    15:00 +4°C° 0.5 mm 3 mps 750 mmHg 88%
    16:00 +4°C° 0.5 mm 3 mps 751 mmHg 87%
    17:00 +4°C° 0 mm 3 mps 751 mmHg 88%
    18:00 +4°C° 0 mm 3 mps 751 mmHg 88%
    19:00 +3°C° 0 mm 3 mps 752 mmHg 89%
    20:00 +3°C° 0 mm 3 mps 752 mmHg 89%
    21:00 +3°C° 0 mm 3 mps 752 mmHg 90%
    22:00 +3°C° 0 mm 3 mps 752 mmHg 90%
    23:00 +3°C° 0 mm 3 mps 752 mmHg 90%

    Day after tomorrow, 17 December, Monday

    Time Temperature Precipitation Wind Pressure Humidity
    00:00 +3°C° 0 mm 3 mps 751 mmHg 89%
    01:00 +3°C° 0 mm 3 mps 751 mmHg 89%
    02:00 +4°C° 0 mm 2 mps 751 mmHg 89%
    03:00 +4°C° 0 mm 2 mps 751 mmHg 90%
    04:00 +4°C° 0 mm 2 mps 751 mmHg 90%
    05:00 +4°C° 0 mm 2 mps 751 mmHg 88%
    06:00 +4°C° 0 mm 2 mps 751 mmHg 87%
    07:00 +3°C° 0 mm 3 mps 751 mmHg 85%
    08:00 +4°C° 0 mm 3 mps 751 mmHg 79%
    09:00 +5°C° 0 mm 4 mps 751 mmHg 72%
    10:00 +7°C° 0 mm 5 mps 751 mmHg 65%
    11:00 +7°C° 0 mm 5 mps 751 mmHg 62%
    12:00 +8°C° 0 mm 6 mps 750 mmHg 58%
    13:00 +9°C° 0 mm 6 mps 750 mmHg 55%
    14:00 +8°C° 0 mm 6 mps 750 mmHg 56%
    15:00 +7°C° 0 mm 6 mps 750 mmHg 56%
    16:00 +5°C° 0 mm 6 mps 751 mmHg 57%
    17:00 +3°C° 0 mm 6 mps 752 mmHg 60%
    18:00 +2°C° 0 mm 5 mps 752 mmHg 62%
    19:00 0°C° 0 mm 5 mps 753 mmHg 64%
    20:00 0°C° 0 mm 5 mps 754 mmHg 64%
    21:00 -1°C° 0 mm 5 mps 754 mmHg 64%
    22:00 -1°C° 0 mm 5 mps 755 mmHg 63%
    23:00 -1°C° 0 mm 5 mps 755 mmHg 63%

    18 December, Tuesday

    Time Temperature Precipitation Wind Pressure Humidity
    00:00 -2°C° 0 mm 5 mps 755 mmHg 63%
    01:00 -2°C° 0 mm 4 mps 756 mmHg 63%
    02:00 -2°C° 0 mm 4 mps 756 mmHg 63%
    03:00 -2°C° 0 mm 4 mps 756 mmHg 63%
    04:00 -2°C° 0 mm 4 mps 756 mmHg 63%
    05:00 -2°C° 0 mm 4 mps 757 mmHg 63%
    06:00 -2°C° 0 mm 4 mps 757 mmHg 64%
    07:00 -2°C° 0 mm 4 mps 758 mmHg 64%
    08:00 -1°C° 0 mm 5 mps 758 mmHg 60%
    09:00 -1°C° 0 mm 5 mps 759 mmHg 57%
    10:00 0°C° 0 mm 5 mps 759 mmHg 53%
    11:00 +1°C° 0 mm 5 mps 759 mmHg 51%
    12:00 +2°C° 0 mm 5 mps 758 mmHg 48%
    13:00 +4°C° 0 mm 4 mps 758 mmHg 45%
    14:00 +4°C° 0 mm 4 mps 758 mmHg 47%
    15:00 +4°C° 0 mm 3 mps 758 mmHg 49%
    16:00 +5°C° 0 mm 2 mps 758 mmHg 51%
    17:00 +4°C° 0 mm 2 mps 758 mmHg 55%
    18:00 +4°C° 0 mm 1 mps 759 mmHg 58%
    19:00 +2°C° 0 mm 1 mps 759 mmHg 62%
    20:00 +2°C° 0 mm 1 mps 759 mmHg 62%
    21:00 +2°C° 0 mm 1 mps 759 mmHg 63%
    22:00 0°C° 0 mm 0 mps 759 mmHg 64%
    23:00 0°C° 0 mm 0 mps 759 mmHg 65%

    19 December, Wednesday

    Time Temperature Precipitation Wind Pressure Humidity
    00:00 +1°C° 0 mm 1 mps 759 mmHg 65%
    01:00 +1°C° 0 mm 1 mps 759 mmHg 65%
    02:00 +1°C° 0 mm 1 mps 759 mmHg 67%
    03:00 +1°C° 0 mm 1 mps 759 mmHg 68%
    04:00 0°C° 0 mm 0 mps 758 mmHg 69%
    05:00 +1°C° 0 mm 1 mps 758 mmHg 71%
    06:00 0°C° 0 mm 1 mps 758 mmHg 72%
    07:00 0°C° 0 mm 1 mps 758 mmHg 74%
    08:00 +2°C° 0 mm 1 mps 758 mmHg 71%
    09:00 +3°C° 0 mm 1 mps 758 mmHg 67%
    10:00 +4°C° 0 mm 1 mps 758 mmHg 63%
    11:00 +5°C° 0 mm 1 mps 758 mmHg 61%
    12:00 +6°C° 0 mm 2 mps 757 mmHg 59%
    13:00 +7°C° 0 mm 2 mps 756 mmHg 56%
    14:00 +7°C° 0 mm 2 mps 756 mmHg 60%
    15:00 +7°C° 0 mm 2 mps 755 mmHg 64%
    16:00 +7°C° 0 mm 1 mps 755 mmHg 68%
    17:00 +6°C° 0 mm 1 mps 755 mmHg 74%
    18:00 +5°C° 0 mm 1 mps 755 mmHg 80%
    19:00 +4°C° 0 mm 1 mps 756 mmHg 86%
    20:00 +4°C° 0 mm 1 mps 755 mmHg 87%
    21:00 +4°C° 0 mm 1 mps 755 mmHg 89%
    22:00 +3°C° 0 mm 1 mps 755 mmHg 90%
    23:00 +3°C° 0 mm 1 mps 755 mmHg 91%

    20 December, Thursday

    Time Temperature Precipitation Wind Pressure Humidity
    00:00 +3°C° 0 mm 1 mps 755 mmHg 92%
    01:00 +3°C° 0 mm 1 mps 754 mmHg 93%
    02:00 +3°C° 0 mm 1 mps 754 mmHg 93%
    03:00 +3°C° 0 mm 1 mps 754 mmHg 93%
    04:00 +3°C° 0 mm 1 mps 754 mmHg 94%
    05:00 +3°C° 0 mm 1 mps 754 mmHg 94%
    06:00 +3°C° 0 mm 1 mps 754 mmHg 95%
    07:00 +3°C° 0 mm 1 mps 754 mmHg 96%
    08:00 +4°C° 0 mm 1 mps 754 mmHg 93%
    09:00 +5°C° 0 mm 1 mps 754 mmHg 90%
    10:00 +5°C° 0 mm 2 mps 754 mmHg 87%
    11:00 +7°C° 0.1 mm 1 mps 753 mmHg 89%
    12:00 +7°C° 0.1 mm 1 mps 752 mmHg 90%
    13:00 +7°C° 0.1 mm 1 mps 751 mmHg 91%
    14:00 +7°C° 0.1 mm 1 mps 751 mmHg 93%
    15:00 +8°C° 0.1 mm 1 mps 750 mmHg 95%
    16:00 +8°C° 0.1 mm 1 mps 750 mmHg 96%
    17:00 +8°C° 0 mm 1 mps 749 mmHg 97%
    18:00 +8°C° 0 mm 1 mps 749 mmHg 98%
    19:00 +8°C° 0 mm 1 mps 749 mmHg 98%
    20:00 +9°C° 0.2 mm 1 mps 748 mmHg 98%
    21:00 +9°C° 0.2 mm 1 mps 747 mmHg 98%
    22:00 +10°C° 0.2 mm 1 mps 746 mmHg 98%
    23:00 +10°C° 1.4 mm 2 mps 744 mmHg 98%
    Show more